Orbital Elements at Epoch 2459200.5 (2020-Dec-17.0) TDB
Reference: JPL 7 (heliocentric ecliptic J2000)
Element | Value | Uncertainty (1-sigma) | Units |
e | .6953607646553404 | 0.0019738 | |
a | 263.9298517649152 | 1.4513 | au |
q | 80.40338822629315 | 0.088326 | au |
i | 24.10044350865732 | 0.0023144 | deg |
node | 90.69847148432386 | 0.0055996 | deg |
peri | 293.6128053615398 | 0.37118 | deg |
M | 3.560134178868491 | 0.021472 | deg |
tp | 2443712.509863356448 (1978-Jul-23.00986336) | 193.67 | TDB |
period | 1566142.220786685 4287.86 | 12918 35.37 | d yr |
n | .0002298641816955611 | 1.8959e-06 | deg/d |
Q | 447.4563153035373 | 2.4604 | au |
|
| | Orbit Determination Parameters
Additional Information
|